Regional Weather Roundup
Issued by NWS

Home | Current Version | Previous Version | Graphics & Text | Print | Product List | Glossary On
Versions: 1 2 3 4 5 6 7 8 9 10 11 12 13 14 15 16 17 18 19 20 21 22 23 24 25 26 27 28 29 30 31 32 33 34 35 36 37 38 39 40 41 42 43 44 45 46 47 48 49 50
814
ASUS43 KMKX 151700
RWRWI

WISCONSIN REGIONAL WEATHER ROUNDUP
NATIONAL WEATHER SERVICE MILWAUKEE/SULLIVAN WI
1100 AM CST FRI DEC 15 2017

NOTE: "FAIR" INDICATES FEW OR NO CLOUDS BELOW 12,000 FEET WITH NO
SIGNIFICANT WEATHER AND/OR OBSTRUCTIONS TO VISIBILITY.

WIZ001-002-006>008-014>016-023>028-151800-
NORTHWEST WISCONSIN

CITY           SKY/WX    TMP DP  RH WIND       PRES   REMARKS
SUPERIOR ARPT  SUNNY     15   5  65 W7        29.89S WCI   5
ASHLAND        CLOUDY    15   7  70 W9        29.86S WCI   3
HAYWARD        CLOUDY    15   5  64 VRB6      29.84S WCI   6
SIREN          CLOUDY    16   8  70 NW7       29.88S WCI   7
CUMBERLAND     FLURRIES  14   7  73 W3        29.86S
RICE LAKE      CLOUDY    15   8  73 CALM      29.89S
CHETEK         CLOUDY    15   8  72 CALM      29.88S
LADYSMITH      CLOUDY    15   7  71 NW7       29.87R WCI   5
EAU CLAIRE     NOT AVBL
MENOMONIE      CLOUDY    20  12  72 N6        29.89S WCI  12
NEW RICHMOND   CLOUDY    18  10  71 CALM      29.88F
OSCEOLA        CLOUDY    18  11  74 NW3       29.92S
$$

WIZ003>005-009-010-017-018-151800-
NORTH CENTRAL WISCONSIN

CITY           SKY/WX    TMP DP  RH WIND       PRES   REMARKS
MANITOWISH WTR CLOUDY    12   7  79 W10       29.77S WCI  -1
ARBOR VITAE    LGT SNOW  17  10  77 W7        29.77S WCI   7
WOODRUFF       LGT SNOW  17  10  77 W7        29.77S WCI   7
RHINELANDER    CLOUDY    14   6  70 NW12      29.77F WCI   0
EAGLE RIVER    FLURRIES  14   7  75 W12G17    29.75S WCI   0
LAND O LAKES   LGT SNOW  17  10  75 W6        29.75S WCI   9
PHILLIPS       FLURRIES  13   6  74 NW6       29.80S WCI   4
TOMAHAWK       FLURRIES  14   7  75 W6        29.81S WCI   5
MEDFORD        FLURRIES  13   7  76 W9        29.81S WCI   1
MERRILL        LGT SNOW  15   8  71 NW6       29.83S WCI   7
$$

WIZ029-030-035-036-043>047-151800-
CENTRAL WISCONSIN

CITY           SKY/WX    TMP DP  RH WIND       PRES   REMARKS
WAUSAU         CLOUDY    15   8  73 W14       29.82S WCI   0
MOSINEE        CLOUDY    16   9  73 NW9G17    29.84S WCI   4
MARSHFIELD     SUNNY     17   8  67 NW13      29.83F WCI   4
STEVENS POINT  FLURRIES  16   8  71 W12       29.86S WCI   3
WAUPACA        CLOUDY    23  11  60 NW12      29.86S WCI  12
WAUTOMA        CLOUDY    23  11  60 W14       29.87F WCI  11
WISC RAPIDS    CLOUDY    19   9  65 NW13      29.87F WCI   6
CAMP DOUGLAS   CLOUDY    25  16  68 W8        29.87F WCI  16
$$

WIZ011>013-019>022-031-037>040-048>050-151800-
NORTHEAST WISCONSIN

CITY           SKY/WX    TMP DP  RH WIND       PRES   REMARKS
ANTIGO         FLURRIES  13   7  76 W13       29.79F WCI  -1
SHAWANO        MOSUNNY   20   9  60 W9G21     29.84S WCI  10
OCONTO         CLOUDY    18   8  65 W10       29.82F WCI   6
STURGEON BAY   MOSUNNY   20  12  71 W13       29.80F WCI   7
GREEN BAY      SUNNY     21   9  59 NW15      29.84F WCI   8
MANITOWOC      CLOUDY    24  15  68 W13       29.84F WCI  12
APPLETON       FLURRIES  19  10  68 NW16      29.83R WCI   5
CLINTONVILLE   CLOUDY    19   9  63 NW17      29.85S WCI   4
OSHKOSH        FLURRIES  22  13  68 W13       29.85S WCI  10
$$

WIZ032>034-041-042-053>061-151800-
SOUTHWEST WISCONSIN

CITY           SKY/WX    TMP DP  RH WIND       PRES   REMARKS
LA CROSSE      CLOUDY    28  19  69 CALM      29.89F
SPARTA         CLOUDY    25  19  77 W7        29.90S WCI  17
VIROQUA        CLOUDY    26  22  85 CALM      29.87S
BOSCOBEL       CLOUDY    30  21  69 SW8       29.92F WCI  22
PRAIRIE DU CHI FLURRIES  29  23  76 SW6       29.92F WCI  23
PLATTEVILLE    CLOUDY    29  22  76 W12       29.92F WCI  19
$$

WIZ056-057-062-063-064-067-068-151800-
SOUTH CENTRAL WISCONSIN

CITY           SKY/WX    TMP DP  RH WIND       PRES   REMARKS
REEDSBURG      MIX PCPN  25  16  67 W13       29.89S WCI  14
BARABOO/DELLS  CLOUDY    25  15  65 W9        29.88S WCI  15
LONE ROCK      CLOUDY    27  18  69 MISG      29.92S
MINERAL POINT  CLOUDY    30  23  74 W13G18    29.89F WCI  20
MADISON        FLURRIES  26  15  63 W12G23    29.89F WCI  16
MIDDLETON      CLOUDY    28  17  62 W14       29.90S WCI  17
WATERTOWN      CLOUDY    24  15  69 NW16      29.89S WCI  11
MONROE         CLOUDY    28  19  69 W17       29.91S WCI  16
JANESVILLE     CLOUDY    30  16  55 W13G18    29.91S WCI  20
$$

WIZ051-052-058>065-066-070>072-151800-
SOUTHEAST WISCONSIN

CITY           SKY/WX    TMP DP  RH WIND       PRES   REMARKS
MILWAUKEE      MOSUNNY   27  12  53 W20G26    29.88S WCI  13
WAUKESHA       MOSUNNY   25  10  54 W21G28    29.87F WCI  10
MILWAUKEE/TIMM MOSUNNY   25   9  50 W17       29.88S WCI  11
RACINE         PTSUNNY   27  14  58 W16G29    29.89F WCI  15
BURLINGTON     SUNNY     27  17  64 NW16G23   29.90S WCI  15
KENOSHA        PTSUNNY   29  15  56 NW17G26   29.88F WCI  17
FOND DU LAC    CLOUDY    23  11  60 W16       29.86S WCI  10
SHEBOYGAN      CLOUDY    23  15  71 W16G22    29.84S WCI  10
WEST BEND      PTSUNNY   23  14  68 W15G25    29.86R WCI  10
JUNEAU         PTSUNNY   22  12  66 W13G20    29.89S WCI   9
$$

LSZ147-162-151800-
LAKE SUPERIOR

STATION/POSITION TIME  TEMP    WIND        PRES    WAVE
                       AIR SEA DIR/SP/G            HT/PER
                 (UTC) (F)     (DEG/KT/KT) (MB)    (FT/S)
DEVILS ISLAND    1600   15     310/ 14/ 19 1012.4R
SAXON HARBOR     1640   17                 1010.8S
$$

LMZ867-665-643>646-151800-
LAKE MICHIGAN

STATION/POSITION TIME  TEMP    WIND        PRES    WAVE
                       AIR SEA DIR/SP/G            HT/PER
                 (UTC) (F)     (DEG/KT/KT) (MB)    (FT/S)
NORTHPORT PIER   1640   22     300/  9/ 17 1007.8F
KEWAUNEE LAKESHO 1624   19     280/ 11/ 15 1009.6
SHEBOYGAN LAKESH 1600   23     300/ 14/ 17 1011.8R
PORT WASHINGTON  1640   25     280/  7/ 19 1012.5S
MILWAUKEE LAKESH 1630   26     290/ 19/ 23   N/A
KENOSHA   LAKESH 1600   25     290/ 11/ 19 1012.5
$$

TC  - TEMPERATURE IN CELSIUS
VSB - VISIBILITY IN STATUTE MILES
WCI - WIND CHILL INDEX
HX  - HEAT INDEX





USA.gov is the U.S. government's official web portal to all federal, state and local government web resources and services.